Location: Azul
(36.7830°S, 59.8500°W)
Time: 07:52:37
(UTC-03:00)

ISS - Pass Details

Date: 10 April 2020
Orbit: 417 x 419 km, 51.6° (Epoch: 31 May)

Event Time Altitude Azimuth Distance (km) Brightness Sun altitude
Exits shadow 06:43:45 - 227° (SW) 1,854 -1.0 -8.3°
Reaches altitude 10° 06:44:33 10° 227° (SW) 1,532 -1.4 -8.1°
Maximum altitude 06:48:00 77° 140° (SE) 445 -3.6 -7.4°
Drops below altitude 10° 06:51:24 10° 53° (NE) 1,518 0.1 -6.7°
Sets 06:53:30 0° 51° (NE) 2,377 1.1 -6.3°
